Regional Weather Roundup
Issued by NWS Raleigh/Durham, NC

Home | Current Version | Previous Version | Text Only | Print | Product List | Glossary On
Versions: 1 2 3 4 5 6 7 8 9 10 11 12 13 14 15 16 17 18 19 20 21 22 23 24 25 26 27 28 29 30 31 32 33 34 35 36 37 38 39 40 41 42 43 44 45 46 47 48 49 50
000
ASUS42 KRAH 241610
RWRRAH
NORTH CAROLINA WEATHER ROUNDUP
NATIONAL WEATHER SERVICE RALEIGH NC
1200 PM EDT TUE APR 24 2018

NOTE: "FAIR" INDICATES FEW OR NO CLOUDS BELOW 12,000 FEET WITH NO
SIGNIFICANT WEATHER AND/OR OBSTRUCTIONS TO VISIBILITY.

NCZ001-053-055-056-065-067-241700-
WESTERN NORTH CAROLINA

CITY           SKY/WX    TMP DP  RH WIND       PRES   REMARKS
ASHEVILLE      CLOUDY    56  53  90 N5        29.91F
JEFFERSON      RAIN      49  48  97 E8        29.95F
MORGANTON      DRIZZLE   53  53 100 N3        29.94F
HICKORY        CLOUDY    56  55  97 NE8       29.90F FOG
RUTHERFORDTON  DRIZZLE   55  55 100 N9        29.91F
MOUNT AIRY     LGT RAIN  55  51  87 E14G22    29.97F
BOONE          DRIZZLE   48  48 100 CALM      29.94F
$$

NCZ021-022-025-041-071-084-088-241700-
CENTRAL NORTH CAROLINA

CITY           SKY/WX    TMP DP  RH WIND       PRES   REMARKS
CHARLOTTE      CLOUDY    64  62  93 E12G20    29.88F FOG
GREENSBORO     LGT RAIN  59  58  96 E10       29.95F FOG
WINSTON-SALEM  CLOUDY    55  55 100 NE9       29.96F FOG
RALEIGH-DURHAM CLOUDY    59  58  96 E15       29.97F
FORT BRAGG     LGT RAIN  63  63 100 E7        29.91F FOG
FAYETTEVILLE   CLOUDY    64  62  93 SE12      29.91F
BURLINGTON     CLOUDY    61  57  87 E15G30    29.95F
LAURINBURG     CLOUDY    65  64  97 E12       29.89F FOG
$$

NCZ011-015-027-028-043-044-047-080-103-241700-
NORTHEASTERN NORTH CAROLINA

CITY           SKY/WX    TMP DP  RH WIND       PRES   REMARKS
ROCKY MT-WILSO LGT RAIN  60  58  92 E9G23     29.97F
GREENVILLE     LGT RAIN  61  61 100 E16G28    30.03F
WASHINGTON     RAIN      61  59  94 CALM      30.06S
ELIZABETH CITY RAIN      61  60  97 E17G28    30.13F FOG
MANTEO         CLOUDY    58  56  92 SE17G23   30.13F
CAPE HATTERAS  HVY RAIN  64  62  93 SE32G39   30.09F VSB 1
$$

NCZ078-087-090-091-093-098-101-241700-
SOUTHEASTERN NORTH CAROLINA

CITY           SKY/WX    TMP DP  RH WIND       PRES   REMARKS
LUMBERTON      CLOUDY    65  65 100 SE13      29.89F
GOLDSBORO      NOT AVBL
KINSTON        RAIN      61  61 100 E13G23    29.97F
KENANSVILLE    CLOUDY    63  61  94 S6        29.96R
NEW BERN       HVY RAIN  61  61 100 S7        30.02F VSB 1/2
CHERRY POINT   LGT RAIN  64  63  96 S10       30.00F
BEAUFORT       HVY RAIN  61  61 100 NW8G25    30.04R VSB 3/4
JACKSONVILLE   LGT RAIN  61  61 100 E13       29.96F FOG
WILMINGTON     PTSUNNY   63  61  93 SE6       29.95F
$$




USA.gov is the U.S. government's official web portal to all federal, state and local government web resources and services.